Regional Weather Roundup
Issued by NWS

Home | Current Version | Previous Version | Text Only | Print | Product List | Glossary Off
Versions: 1 2 3 4 5 6 7 8 9 10 11 12 13 14 15 16 17 18 19 20 21 22 23 24 25 26 27 28 29 30 31 32 33 34 35 36 37 38 39 40 41 42 43 44 45 46 47 48 49 50

000
ASUS43 KLOT 211609
RWRIL

ILLINOIS REGIONAL WEATHER ROUNDUP
NATIONAL WEATHER SERVICE CHICAGO/ROMEOVILLE IL
1100 AM CDT FRI JUL 21 2017

NOTE: "FAIR" INDICATES FEW OR NO CLOUDS BELOW 12,000 FEET WITH NO
SIGNIFICANT WEATHER AND/OR OBSTRUCTIONS TO VISIBILITY.

* THESE STATIONS ARE NOT UNDER NWS QUALITY CONTROL. THEY ALSO MAY NOT
  REPORT WEATHER SUCH AS PRECIPITATION OR FOG.

ILZ001-002-007-009-015-016-024-211700-
NORTHWEST ILLINOIS

CITY           SKY/WX    TMP DP  RH WIND       PRES   REMARKS
MOLINE         CLOUDY    82  72  71 SE10      29.96F HX  87
STERLING*      LGT RAIN  76  74  93 CALM      29.99S
SAVANNA*       CLOUDY    79  73  82 E6        29.98F HX  82
$$

ILZ003-004-008-010-011-017-018-211700-
NORTH CENTRAL ILLINOIS

CITY           SKY/WX    TMP DP  RH WIND       PRES   REMARKS
ROCKFORD       CLOUDY    80  73  79 SE6       30.00F HX  84
FREEPORT*      CLOUDY    76  74  94 CALM      30.01S
ROCHELLE*      CLOUDY    77  74  90 CALM      30.02R
DE KALB*       CLOUDY    77  73  86 SE6       30.02S
PERU*          CLOUDY    81  74  79 SW3       30.01S HX  85
$$

ILZ005-006-012>014-019>023-211700-
NORTHEAST ILLINOIS

CITY           SKY/WX    TMP DP  RH WIND       PRES   REMARKS
CHICAGO-OHARE  CLOUDY    84  69  60 SE8       30.00R HX  88
CHICAGO-MIDWAY CLOUDY    84  70  62 VRB5      30.00R HX  88
AURORA         CLOUDY    80  73  79 SE7       30.01R HX  84
LANSING*       CLOUDY    81  69  68 W3        30.01R HX  84
JOLIET*        CLOUDY    82  74  76 CALM      30.02R HX  87
WAUKEGAN       PTSUNNY   82  71  69 S7        30.00S HX  86
DUPAGE AIRPORT CLOUDY    80  73  79 S7        30.01R HX  84
WHEELING       CLOUDY    82  71  69 SE8       30.01S HX  86
MORRIS*        CLOUDY    79  73  81 CALM      30.00R HX  83
ROMEOVILLE*    CLOUDY    80  70  69 S3        30.01R HX  84
NORTHERLY ISL    N/A     78  70  76 CALM        N/A  HX  80
$$

LMZ740>746-211700-
SOUTHERN LAKE MICHIGAN

STATION/POSITION SKY/WX   TEMP    WIND        PRES    VSBY  WAVE
                          AIR SEA DIR/SP/G                  HT/PER
                          (F)     (DEG/KT/KT) (MB)    (MI)  (FT/S)
SOUTHERN BUOY              71 71   50/  6/  6 1014.8          0
WILMETTE HARBOR            73 72  130/  6/  8   N/A           1
HARRISON CRIB              79     120/  3/  3   N/A
BURNHAM HARBOR             77                   N/A
CALUMET HARBOR             78      20/  4/  7 1015.7R
BURNS HARBOR               75     340/  6/  7 1016.3R
MICHIGAN CITY              78     290/  8/  8   N/A
MICHIGAN CITY 6N           76 76  350/  6/  6   N/A           1
ST. JOSEPH                 76 75  320/  6/  6 1016.0          0
$$

ILZ025>027-034>036-040-047-049-050-058-095>099-211700-
WEST-CENTRAL ILLINOIS

CITY           SKY/WX    TMP DP  RH WIND       PRES   REMARKS
QUINCY         SUNNY     91  75  59 SW5       29.98R HX 101
GALESBURG*     CLOUDY    84  73  69 SE7       30.00R HX  90
MACOMB*        SUNNY     86  78  75 S7        30.00S HX  98
JACKSONVILLE*  SUNNY     90  76  64 W6        29.98S HX 102
PITTSFIELD*    SUNNY     90  77  64 SW8       30.00S HX 103
$$

ILZ028>032-037-038-041>044-048-051>054-059>061-211700-
CENTRAL ILLINOIS

CITY           SKY/WX    TMP DP  RH WIND       PRES   REMARKS
PONTIAC        MOSUNNY   83  77  82 SW6       30.02R HX  92
BLOOMINGTON    MOSUNNY   84  72  67 S8        30.03R HX  89
DECATUR        MOSUNNY   87  77  72 VRB7      30.00R HX  99
PEORIA         CLOUDY    87  73  62 SE9       30.00R HX  94
LACON*         CLOUDY    81  75  84 SW3       29.99S HX  86
LINCOLN*       SUNNY     87  77  71 SE7       29.99S HX  98
SPRINGFIELD    NOT AVBL
TAYLORVILLE    SUNNY     88  77  69 CALM      29.99S HX 101
$$

ILZ033-039-045-046-055>057-062-063-211700-
EAST-CENTRAL ILLINOIS

CITY           SKY/WX    TMP DP  RH WIND       PRES   REMARKS
CHAMPAIGN      MOSUNNY   86  73  65 CALM      30.01S HX  93
RANTOUL*       CLOUDY    84  75  75 CALM      30.01S HX  91
MATTOON        SUNNY     89  77  67 S9        29.99F HX 101
PARIS*         SUNNY     87  77  72 S3        30.01R HX  98
$$

ILZ079-100>102-211700-
SOUTHWEST ILLINOIS

CITY           SKY/WX    TMP DP  RH WIND       PRES   REMARKS
ALTON          SUNNY     91  77  62 W8        29.98F HX 105
BELLEVILLE     SUNNY     94  75  53 NW6       30.00S HX 106
CAHOKIA*       SUNNY     94  72  48 VRB5      29.99S HX 102
SPARTA*        SUNNY     92  75  56 NW6       30.01S HX 102
$$

ILZ064>066-069>071-074>076-080>082-084>086-088>090-092>094-211700-
SOUTH-CENTRAL ILLINOIS

CITY           SKY/WX    TMP DP  RH WIND       PRES   REMARKS
CARBONDALE     SUNNY     90  80  72 W6        30.00S HX 107
CAIRO*         SUNNY     89  80  73 SW6       30.02S HX 105
EFFINGHAM*     SUNNY     91  77  64 CALM      30.01S HX 104
MARION         SUNNY     91  77  62 NW6       30.02S HX 105
MT. VERNON     SUNNY     92  78  63 VRB3      30.00S HX 107
CENTRALIA*     SUNNY     93  78  61 CALM      29.99S HX 108
SALEM*         SUNNY     92  76  59 CALM      29.99S HX 105
METROPOLIS*    SUNNY     91  80  71 W5        30.02F HX 109
$$

ILZ067-068-072-073-078-083-087-091-211700-
SOUTHEAST ILLINOIS

CITY           SKY/WX    TMP DP  RH WIND       PRES   REMARKS
LAWRENCEVILLE  CLOUDY    89  77  67 S12       30.00F HX 101
FLORA*         MOSUNNY   90  78  68 SE5       30.01R HX 104
FAIRFIELD*     SUNNY     89  78  70 CALM      30.00S HX 102
HARRISBURG*    SUNNY     90  78  69 SW5       30.01S HX 104
ROBINSON*      MOSUNNY   87  76  70 S8        30.01S HX  96
CARMI*         SUNNY     89  80  76 E5        30.00S HX 106
$$

ABBREVIATIONS USED IN REMARKS
   TC - TEMPERATURE IN CELSIUS
  WCI - WIND CHILL INDEX
   HX - HEAT INDEX
  VSB - VISIBILITY
$$





USA.gov is the U.S. government's official web portal to all federal, state and local government web resources and services.